Total_Precipitation_Accumulation
0.00 0.00 0.00 0.00 0.00 0.00 0.00 0.00 0.00 0.00 0.00 0.00 0.00 0.00 0.00 0.00 0.00 0.00 0.00 0.00 0.00 0.00 0.00 0.00 0.00 0.00 0.00 0.00 0.00 0.00 0.00 0.00 0.00 0.00 0.00 0.00 0.00 0.00 0.00 0.00 0.00 0.00 0.00 0.00 0.00
0.00 0.00 0.00 0.00 0.00 0.00 0.00 0.00 0.00 0.00 0.00 0.00 0.00 0.00 0.00 0.00 0.00 0.00 0.00 0.00 0.00 0.00 0.00 0.00 0.00 0.00 0.00 0.00 0.00 0.00 0.00 0.00 0.00 0.00 0.00 0.00 0.00 0.00 0.00 0.00 0.00 0.00 0.00 0.00 0.00
0.00 0.00 0.00 0.00 0.00 0.00 0.00 0.00 0.00 0.00 0.00 0.00 0.00 0.00 0.00 0.00 0.00 0.00 0.00 0.00 0.00 0.00 0.00 0.00 0.00 0.00 0.00 0.00 0.00 0.00 0.00 0.00 0.00 0.00 0.00 0.00 0.00 0.00 0.00 0.00 0.00 0.00 0.00 0.00 0.00
0.00 0.00 0.00 0.00 0.00 0.00 0.00 0.00 0.00 0.00 0.00 0.00 0.00 0.00 0.00 0.00 0.00 0.00 0.00 0.00 0.00 0.00 0.00 0.00 0.00 0.00 0.00 0.00 0.00 0.00 0.00 0.00 0.00 0.00 0.00 0.00 0.00 0.00 0.00 0.00 0.00 0.00 0.00 0.00 0.00
0.01 0.00 0.00 0.00 0.00 0.00 0.00 0.00 0.00 0.00 0.00 0.00 0.00 0.00 0.00 0.00 0.00 0.00 0.00 0.00 0.00 0.00 0.00 0.00 0.00 0.00 0.00 0.00 0.00 0.00 0.00 0.00 0.00 0.00 0.00 0.00 0.00 0.00 0.00 0.00 0.00 0.00 0.00 0.00 0.00
0.01 0.01 0.00 0.00 0.00 0.00 0.00 0.00 0.00 0.00 0.00 0.00 0.00 0.00 0.00 0.00 0.00 0.00 0.00 0.00 0.00 0.00 0.00 0.00 0.00 0.00 0.00 0.00 0.00 0.00 0.00 0.00 0.00 0.00 0.00 0.00 0.00 0.00 0.00 0.00 0.00 0.00 0.00 0.00 0.00
0.00 0.01 0.01 0.00 0.00 0.01 0.01 0.00 0.00 0.00 0.00 0.00 0.01 0.01 0.02 0.00 0.00 0.00 0.00 0.00 0.00 0.00 0.00 0.00 0.00 0.00 0.00 0.00 0.00 0.00 0.00 0.00 0.00 0.00 0.00 0.00 0.00 0.00 0.00 0.00 0.00 0.00 0.00 0.00 0.00
0.00 0.01 0.01 0.01 0.01 0.01 0.00 0.00 0.00 0.00 0.00 0.00 0.01 0.03 0.03 0.00 0.00 0.00 0.00 0.00 0.00 0.00 0.00 0.00 0.00 0.00 0.00 0.00 0.00 0.00 0.00 0.00 0.00 0.00 0.00 0.00 0.00 0.00 0.00 0.00 0.00 0.00 0.00 0.00 0.00
0.00 0.00 0.00 0.01 0.01 0.01 0.00 0.00 0.00 0.00 0.00 0.00 0.01 0.03 0.01 0.00 0.00 0.00 0.00 0.00 0.00 0.00 0.00 0.00 0.00 0.00 0.00 0.00 0.00 0.00 0.00 0.00 0.00 0.00 0.00 0.00 0.00 0.00 0.00 0.00 0.00 0.00 0.00 0.00 0.00
0.00 0.00 0.01 0.01 0.01 0.01 0.01 0.00 0.00 0.00 0.00 0.01 0.04 0.05 0.00 0.00 0.00 0.00 0.00 0.00 0.00 0.00 0.00 0.00 0.00 0.00 0.00 0.00 0.00 0.00 0.00 0.00 0.00 0.00 0.00 0.00 0.00 0.00 0.00 0.00 0.00 0.00 0.00 0.00 0.00
0.00 0.00 0.00 0.01 0.01 0.02 0.01 0.01 0.00 0.01 0.02 0.01 0.01 0.00 0.00 0.00 0.00 0.00 0.00 0.00 0.00 0.00 0.00 0.00 0.00 0.00 0.00 0.00 0.00 0.00 0.00 0.00 0.00 0.00 0.00 0.00 0.00 0.00 0.00 0.00 0.00 0.00 0.00 0.00 0.00
0.00 0.00 0.00 0.00 0.02 0.01 0.01 0.01 0.00 0.01 0.01 0.00 0.00 0.00 0.00 0.00 0.00 0.00 0.00 0.00 0.00 0.00 0.00 0.00 0.00 0.00 0.00 0.00 0.00 0.00 0.00 0.00 0.00 0.00 0.00 0.00 0.00 0.00 0.00 0.00 0.00 0.00 0.00 0.00 0.00
0.00 0.00 0.00 0.00 0.00 0.00 0.02 0.01 0.01 0.01 0.01 0.00 0.00 0.00 0.00 0.00 0.00 0.00 0.00 0.00 0.00 0.00 0.00 0.00 0.00 0.00 0.00 0.00 0.00 0.00 0.00 0.00 0.00 0.00 0.00 0.00 0.00 0.00 0.00 0.00 0.00 0.00 0.00 0.00 0.00
0.03 0.01 0.00 0.00 0.00 0.00 0.01 0.00 0.03 0.02 0.01 0.00 0.00 0.00 0.00 0.00 0.00 0.00 0.00 0.00 0.00 0.00 0.00 0.00 0.00 0.00 0.00 0.00 0.00 0.00 0.00 0.01 0.00 0.00 0.00 0.00 0.00 0.00 0.00 0.00 0.00 0.00 0.00 0.00 0.00
0.03 0.05 0.02 0.01 0.03 0.03 0.01 0.01 0.06 0.04 0.01 0.00 0.00 0.00 0.00 0.00 0.00 0.00 0.00 0.00 0.00 0.00 0.01 0.00 0.00 0.00 0.00 0.00 0.01 0.00 0.00 0.01 0.01 0.01 0.02 0.00 0.02 0.00 0.00 0.00 0.00 0.00 0.00 0.00 0.00
0.02 0.04 0.05 0.04 0.03 0.02 0.03 0.16 0.24 0.09 0.01 0.00 0.00 0.00 0.00 0.00 0.00 0.00 0.00 0.00 0.00 0.00 0.00 0.00 0.00 0.00 0.00 0.00 0.00 0.00 0.02 0.05 0.08 0.07 0.11 0.01 0.02 0.01 0.00 0.00 0.00 0.00 0.00 0.00 0.00
0.01 0.03 0.06 0.07 0.06 0.06 0.13 0.35 0.29 0.13 0.00 0.00 0.00 0.00 0.00 0.00 0.00 0.00 0.01 0.00 0.00 0.01 0.01 0.00 0.00 0.00 0.00 0.01 0.00 0.00 0.04 0.15 0.11 0.06 0.07 0.00 0.01 0.00 0.00 0.00 0.00 0.00 0.00 0.00 0.00
0.00 0.01 0.05 0.04 0.10 0.25 0.42 0.43 0.38 0.01 0.00 0.00 0.00 0.00 0.00 0.00 0.00 0.00 0.04 0.03 0.01 0.02 0.04 0.03 0.01 0.00 0.00 0.00 0.01 0.00 0.05 0.10 0.08 0.03 0.01 0.00 0.00 0.00 0.00 0.00 0.00 0.00 0.00 0.00 0.00
0.00 0.01 0.04 0.03 0.12 0.32 0.61 0.94 0.32 0.00 0.00 0.00 0.01 0.00 0.00 0.00 0.01 0.05 0.05 0.04 0.04 0.08 0.15 0.06 0.01 0.00 0.01 0.00 0.02 0.06 0.11 0.04 0.18 0.16 0.09 0.00 0.00 0.00 0.00 0.01 0.00 0.00 0.00 0.00 0.00
0.02 0.04 0.01 0.02 0.26 0.42 0.74 0.94 0.19 0.00 0.00 0.03 0.02 0.00 0.00 0.00 0.01 0.04 0.05 0.03 0.05 0.06 0.22 0.17 0.16 0.02 0.03 0.05 0.03 0.04 0.04 0.22 0.64 0.46 0.18 0.01 0.00 0.00 0.01 0.00 0.00 0.00 0.00 0.00 0.00
0.30 0.27 0.03 0.04 0.31 0.53 0.97 0.43 0.06 0.01 0.03 0.09 0.05 0.05 0.03 0.01 0.00 0.00 0.00 0.01 0.04 0.04 0.18 0.31 0.39 0.24 0.13 0.09 0.09 0.11 0.21 0.50 0.45 0.23 0.11 0.03 0.01 0.01 0.00 0.01 0.00 0.00 0.00 0.00 0.00
0.37 0.35 0.07 0.12 0.25 0.47 0.44 0.13 0.02 0.01 0.06 0.12 0.05 0.03 0.03 0.04 0.04 0.02 0.00 0.04 0.04 0.01 0.05 0.16 0.35 0.30 0.19 0.11 0.10 0.18 0.38 0.81 0.98 0.68 0.36 0.19 0.09 0.02 0.01 0.01 0.00 0.00 0.00 0.00 0.00
0.27 0.16 0.08 0.26 0.32 0.16 0.07 0.06 0.12 0.05 0.04 0.25 0.18 0.14 0.10 0.05 0.08 0.05 0.04 0.10 0.04 0.02 0.04 0.07 0.18 0.20 0.09 0.14 0.22 0.19 0.20 0.50 0.81 0.98 1.06 0.91 0.46 0.10 0.09 0.03 0.00 0.00 0.00 0.00 0.00
0.29 0.24 0.16 0.20 0.31 0.17 0.09 0.08 0.10 0.06 0.08 0.11 0.21 0.08 0.11 0.14 0.16 0.25 0.10 0.10 0.09 0.02 0.01 0.04 0.09 0.16 0.16 0.11 0.17 0.21 0.13 0.31 0.49 0.58 0.42 0.32 0.15 0.06 0.11 0.14 0.09 0.04 0.02 0.00 0.00
0.31 0.12 0.07 0.09 0.04 0.07 0.13 0.14 0.06 0.07 0.15 0.15 0.15 0.03 0.08 0.18 0.14 0.20 0.13 0.15 0.16 0.15 0.11 0.14 0.10 0.10 0.10 0.14 0.18 0.20 0.14 0.17 0.32 0.26 0.30 0.09 0.04 0.02 0.05 0.01 0.00 0.00 0.00 0.00 0.00
0.16 0.04 0.02 0.05 0.01 0.04 0.06 0.08 0.07 0.07 0.27 0.25 0.27 0.10 0.13 0.17 0.18 0.10 0.15 0.19 0.21 0.17 0.17 0.30 0.26 0.14 0.07 0.02 0.08 0.13 0.05 0.03 0.06 0.05 0.06 0.01 0.01 0.00 0.05 0.01 0.00 0.00 0.00 0.00 0.00
0.13 0.03 0.04 0.04 0.03 0.05 0.05 0.02 0.01 0.06 0.10 0.12 0.17 0.10 0.07 0.19 0.10 0.02 0.03 0.04 0.05 0.06 0.11 0.23 0.19 0.19 0.12 0.04 0.13 0.15 0.01 0.00 0.00 0.00 0.00 0.00 0.00 0.00 0.00 0.00 0.00 0.00 0.00 0.00 0.00